Regional Weather Roundup
Issued by NWS Mobile, AL

Home | Current Version | Previous Version | Text Only | Print | Product List | Glossary On
Versions: 1 2 3 4 5 6 7 8 9 10 11 12 13 14 15 16 17 18 19 20 21 22 23 24 25 26 27 28 29 30 31 32 33 34 35 36 37 38 39 40 41 42 43 44 45 46 47 48 49 50
000
ASUS44 KMOB 251312
RWRMOB
REGIONAL WEATHER ROUNDUP
NATIONAL WEATHER SERVICE MOBILE AL
800 AM CDT THU MAY 25 2017

NOTE: "FAIR" INDICATES FEW OR NO CLOUDS BELOW 12,000 FEET WITH NO
      SIGNIFICANT WEATHER AND/OR OBSTRUCTIONS TO VISIBILITY.

  * THESE STATIONS ARE PART OF THE UNIVERSITY OF SOUTH ALABAMA
    MESONET AND ARE NOT UNDER NWS OR FAA QUALITY CONTROL.

ALZ061>064-251400-
COASTAL ALABAMA

CITY           SKY/WX    TMP DP  RH WIND       PRES   REMARKS
MOBILE REG APT MOSUNNY   62  53  72 W6        29.87R
BROOKLEY FIELD SUNNY     65  56  72 W6        29.87R
USA CAMPUS*      N/A     64  55  72 CALM      29.86S
DOG RIVER*       N/A     63  55  77 W5        30.57


CITY           SKY/WX    TMP DP  RH WIND       PRES   REMARKS
GULF SHORES    SUNNY     66  56  68 N7        29.87R

$$

ALZ051>060-251400-
INTERIOR SOUTHWEST AND SOUTH CENTRAL ALABAMA

CITY           SKY/WX    TMP DP  RH WIND       PRES   REMARKS
GREENVILLE     SUNNY     61  50  67 W8        29.82R
EVERGREEN      SUNNY     63  52  67 VRB6      29.84R
ATMORE*          N/A     63  54  72 SW3       29.87R
ANDALUSIA/OPP  SUNNY     65  53  65 W9        29.84R
ANDALUSIA*       N/A     61  54  77 W7        29.84R
FLORALA APT    SUNNY     64  53  67 CALM      29.86R
FLORALA*         N/A     63  55  77 SW2       30.51R

$$

FLZ001>006-251400-
WESTERN FLORIDA PANHANDLE

CITY           SKY/WX    TMP DP  RH WIND       PRES   REMARKS
PENSACOLA      SUNNY     66  52  60 W6        29.86R
NAS PENSACOLA  SUNNY     67  53  61 W5        29.86R
MILTON         SUNNY     63  54  72 W8        29.85R
WHTNG S FIELD  SUNNY     66  55  67 VRB6      29.86R


CITY           SKY/WX    TMP DP  RH WIND       PRES   REMARKS
JAY*             N/A     63  52  67 W6        29.86R
DUKE FIELD     SUNNY     64  52  65 NW8       29.85R
CRESTVIEW      SUNNY     65  52  62 W7        29.87R
VALPARAISO     MOSUNNY   65  51  61 NW10      29.86R
DESTIN         SUNNY     70  56  61 NW7       29.85R

$$

MSZ076-079-251400-
INTERIOR SOUTHEAST MISSISSIPPI

CITY           SKY/WX    TMP DP  RH WIND       PRES   REMARKS
LEAKESVILLE*   NOT AVBL
AGRICOLA*        N/A     61  54  77 CALM      29.86

$$

MARINE OBSERVATIONS

STATION/POSITION TIME  TEMP    WIND        PRES    WAVE
                       AIR SEA DIR/SP/G            HT/PER
                 (UTC) (F)     (DEG/KT/KT) (MB)    (FT/S)
PASCAGOULA       1248   66     320/  4/  7 1011.2R
PETIT BOIS ISLND 1248   69     310/  8/ 10 1012.0R
GRAND BAY        1145   61     300/  4     1011.0S
KATRINA CUT      1200   69     310/ 12     1010.8
CEDAR POINT      1230   64     330/  8     1010.8R
E DAUPHIN ISLAND 1200   68     320/ 10/ 12 1010.6R
MIDDLE BAY LIGHT 1200   67     300/ 12     1010.5
USCG MOBILE BAY  1248   64 77  280/  5/  7 1011.6R
STATE DOCKS      1248   67 77              1010.8R
MEAHER PARK      1230   63     320/  4     1010.5R
FORT MORGAN      1248   67     330/ 10/ 12   N/A
12 S ORANGE BCH  1150   69 76  320/ 16/ 17 1010.0R   4/ 7
PENSACOLA BAY    1248   65 79              1011.2R
64 S DAUPHIN ISL 1250   73 77  310/ 12/ 16 1011.5R   4/ 6
67 S FORT MORGAN 1230   72        CALM     1011.2R

$$

SELECTED LOCATIONS ACROSS THE REGION

CITY           SKY/WX    TMP DP  RH WIND       PRES   REMARKS
NEW ORLEANS    SUNNY     67  59  75 SW3       29.87R
GULFPORT       SUNNY     64  55  72 NW3       29.86R
PASCAGOULA AP  SUNNY     63  54  72 W3        29.87R
PASCAGOULA*    NOT AVBL
HATTIESBURG    SUNNY     60  52  74 CALM      29.86R
LAUREL         NOT AVBL
MERIDIAN       SUNNY     61  54  77 VRB5      29.83R
JACKSON        SUNNY     59  54  83 SW3       29.84R
MONTGOMERY     SUNNY     61  52  72 SW12      29.82R
TROY           SUNNY     60  52  74 W7        29.84R
ASHFORD*         N/A     61  54  77 W7        29.84R
DOTHAN         SUNNY     62  53  72 W10       29.86R
PANAMA CITY    SUNNY     66  53  63 W10       29.84R

$$




USA.gov is the U.S. government's official web portal to all federal, state and local government web resources and services.